NOAA NWS Hourly Roundups by Site

Regional Weather Roundup for State College, PA

To Select Another Site Choose from List

Select Site:  

000
ASUS41 KCTP 232210
RWRCTP

REGIONAL WEATHER ROUNDUP
NATIONAL WEATHER SERVICE STATE COLLEGE PA
600 PM EDT SAT MAR 23 2019

Note: "fair" indicates few or no clouds below 12,000 feet with no
significant weather and/or obstructions to visibility.

* = STATION THAT DOES NOT REPORT PRECIPITATION /E.G. RAIN...SNOW...ETC/
    THUNDER OR FOG.

PAZ002>004-007>009-013>016-020>023-029>032-232300-
WESTERN PENNSYLVANIA

CITY           SKY/WX    TMP DP  RH WIND       PRES   REMARKS
ERIE           FAIR      35  23  61 W10       30.28S
MEADVILLE      FAIR      38  15  39 W10       30.23R
FRANKLIN*      FAIR      40  12  32 NW8       30.22R
NEW CASTLE     FAIR      45   8  22 NW8       30.25S
BEAVER COUNTY  NOT AVBL
BUTLER*        FAIR      44  14  29 W9G17     30.24R
PITTSBURGH INT FAIR      46  13  26 NW16      30.24S
PITTSBURGH     FAIR      46  16  30 W12G20    30.23R
INDIANA*       SUNNY     45  14  29 W13G23    30.24R
LATROBE        SUNNY     45  14  29 W12G23    30.24R
WASHINGTON CO* FAIR      47  15  27 W8        30.28R
$$

PAZ004>006-010>012-017>019-024>028-033>037-041-042-045-046-049>053-232300-
CENTRAL PENNSYLVANIA

CITY           SKY/WX    TMP DP  RH WIND       PRES   REMARKS
BRADFORD       FAIR      36  11  35 NW15G23   30.14R
DUBOIS         FAIR      40  11  30 W12G23    30.16R
CLEARFIELD     FAIR      43  11  27 W14G23    30.16R
JOHNSTOWN      FAIR      39  13  34 W18G29    30.16R
ALTOONA        FAIR      44  16  32 NW21G30   30.17R
STATE COLLEGE  SUNNY     45  10  24 NW10G21   30.15R
WILLIAMSPORT   FAIR      48   3  15 NW16G26   30.10R
SELINSGROVE    FAIR      49   7  18 NW12G22   30.13R
FT INDIANTOWN  NOT AVBL
CAPITAL CITY   FAIR      50   8  18 W14G25    30.13R
HARRISBURG     FAIR      49  14  24 NW20G30   30.12R
YORK           FAIR      49  15  25 W14G22    30.14R
$$

PAZ038>040-043-044-047-048-054-055-060>062-067>071-232300-
EASTERN PENNSYLVANIA

CITY           SKY/WX    TMP DP  RH WIND       PRES   REMARKS
SCRANTON       FAIR      43  11  27 N15       30.07R
MOUNT POCONO   FAIR      36  12  37 NW20G32   29.99R
ALLENTOWN      FAIR      51   9  18 NW14G25   30.05R
QUAKERTOWN*    CLEAR     48  10  21 W15G22    30.05R
READING        FAIR      50  12  21 NW21      30.08R
LANCASTER      FAIR      50  15  24 W23       30.10R
COATESVILLE    FAIR      46  16  29 NW12G23   30.09R
POTTSTOWN      FAIR      48  14  25 NW12G24   30.07R
BLUE BELL      FAIR      48  12  23 NW9G21    30.07R
DOYLESTOWN     FAIR      49   9  19 NW17G30   30.03R
WILLOW GROVE   NOT AVBL
NORTH PHILA    FAIR      52  10  18 NW22G30   30.06R
PHILADELPHIA   FAIR      52   9  17 W18G28    30.07R
$$


 

View Past Reports for State College, PA.

Products Courtesy of NOAA-NWS
NWS Information Parsing Script by Ken True at Saratoga Weather - Script by SE Lincoln Weather.